Location: Saint-Restitut
(44.3351°N, 4.7915°E)
Time: 13:35:39
(UTC+00:00)

FENGYUN 1C DEB - Visible Passes

Search period start: 23 February 2024 00:00
Search period end: 04 March 2024 00:00
Orbit: 819 x 906 km, 98.7° (Epoch: 22 February)

Date Brightness Start Highest point End Pass type
(mag) Time Alt. Az. Time Alt. Az. Time Alt. Az.
23 Feb ? 05:07:26 10° NE 05:11:22 20° E 05:15:16 10° SE visible
23 Feb ? 18:17:57 10° SSW 18:22:45 28° W 18:27:30 10° NW visible
24 Feb ? 04:59:26 10° NE 05:02:54 17° E 05:06:20 10° SE visible
24 Feb ? 18:09:17 10° SSW 18:14:20 32° W 18:19:20 10° NNW visible
25 Feb ? 04:51:35 10° ENE 04:54:25 14° E 04:57:15 10° ESE visible
25 Feb ? 18:00:41 10° SSW 18:05:56 37° W 18:11:06 10° NNW visible
26 Feb ? 04:43:59 10° ENE 04:45:56 12° E 04:47:53 10° ESE visible
26 Feb ? 17:52:08 10° S 17:57:31 44° W 18:02:51 10° NNW visible
27 Feb ? 17:43:38 10° S 17:49:08 51° W 17:54:34 10° NNW visible
01 Mar ? 19:04:03 10° WSW 19:05:44 11° W 19:07:26 10° WNW visible
02 Mar ? 05:40:41 10° NNE 05:45:42 40° E 05:50:42 10° SSE visible
02 Mar ? 18:54:32 10° WSW 18:57:15 14° W 18:59:58 10° WNW visible
03 Mar ? 05:32:26 10° NNE 05:37:17 34° E 05:42:06 10° SSE visible
03 Mar ? 18:45:24 10° SW 18:48:47 16° W 18:52:10 10° NW visible
